GRACE-1 (27391 NORAD) Tracking and Keplerian Element Data

This shows tracking and keplerian element data for the satellite.

Feedback or suggestion? Click here.




ElementValue
Catalog27391
NameGRACE-1
Epoch Orbit21864
Epoch Day68.91646861
Epoch Year2018
RAAN280.8971
Inclination88.949
Eccentricity0.0006346
Argument of Perigee277.5506
Mean Anonmoly193.5554
Mean Motion16.43427109
Decay Rate0.07233816
L11 27391U 02012A 18068.91646861 .07233816 -11624-5 29177-3 0 9990
L22 27391 88.9490 280.8971 0006346 277.5506 193.5554 16.43427109218648



Live tracking and technical data element details for GRACE-1 (NORAD 27391). GRACE-1 can be tracked NOW for your location showing map with azimuth and elevation plus other details from your city location.







IsCatalogInMostPopularTable: catalog: 27391, numindb: 491
Update: records affected: 1



GetName: 27391 GRACE-1

Hit Count: updated at: Fri, 16 May 2025 09:54:24 GMT